[[{"header":{"parameterUnit":"m.s-1","parameterCategory":2,"la1":30.2991,"la2":30.254,"lo1":-89.0895,"lo2":-89.0444,"dy":0.0017,"dx":0.0017,"nx":28,"ny":28,"refTime":"2024-03-15T21:00:00:Z","depth":"0","parameterNumber":2,"parameterNumberName":"U-component_of_CURRENTS"},"data":[0,0,0,0,0,0,0,0,0,0,0,0,0,0,0,0,0,0,0,0,0,0,0,0,0,0,0,0,0,0,0,0,0,0,0,0,0,0,0,0,0,0,0,0,0,0,0,0,0,0,0,0,0,0,0,0,0,0,0.2067,0.2067,0,0.2058,0.2058,0.2057,0.2042,0.2042,0.2042,0.2042,0.2002,0.2001,0.2,0,0,0,0,0,0,0,0,0,0,0,0,0,0.2113,0.2111,0.2067,0.2067,0.2067,0.2058,0.2058,0.2057,0.2042,0.2042,0.2042,0.2042,0.2002,0.2001,0.1999,0,0,0,0,0,0,0,0,0,0,0,0,0,0.2094,0.2111,0.2067,0.2061,0.206,0.2058,0.2058,0.2057,0.2042,0.2042,0.2042,0.2042,0.2002,0.2001,0.1999,0.1989,0,0,0.1994,0.1994,0,0,0,0,0,0,0,0,0.2095,0.2092,0.2061,0.2061,0.2061,0.2054,0.2059,0.2034,0.2042,0.2045,0.2042,0.2042,0.2018,0.2015,0.201,0.1987,0.1986,0.1994,0.1993,0.1993,0.1992,0,0,0,0,0,0,0,0.2096,0.2092,0.206,0.2062,0.2061,0.2074,0.207,0.2055,0.2029,0.2045,0.2045,0.2049,0.2017,0.2011,0.2008,0.1985,0.1994,0.1993,0.1992,0.1991,0.1999,0.2,0,0,0,0,0,0,0.2101,0.2093,0.206,0.206,0.2082,0.2073,0.2069,0.2053,0.203,0.2027,0.2049,0.2048,0.2014,0.201,0.2007,0.2029,0.1993,0.1991,0.199,0.1998,0.1999,0.2001,0,0,0,0,0,0,0.2102,0.2098,0.2061,0.2081,0.2077,0.2072,0.2055,0.2053,0.2054,0.2034,0.203,0.2053,0.2014,0.2009,0.2001,0.2026,0.199,0.1989,0.1997,0.1998,0.2,0.2049,0,0,0,0,0,0,0.2103,0.2097,0.2089,0.208,0.2076,0.2075,0.2055,0.2053,0.2058,0.2057,0.2035,0.2031,0.2013,0.2003,0.1999,0.2023,0.1988,0.1995,0.1997,0.1999,0.2046,0.2052,0.2058,0,0,0,0,0,0.2104,0.2092,0.2088,0.2084,0.2063,0.2077,0.2076,0.2071,0.2058,0.2068,0.2047,0.2032,0.2015,0.2002,0.1997,0.2021,0.1994,0.1997,0.1999,0.2043,0.2051,0.2058,0,0,0,0,0,0,0.2103,0.209,0.2084,0.2067,0.2081,0.2076,0.2079,0.2076,0.2067,0.2059,0.2035,0.203,0.2035,0.2021,0.2008,0.2032,0.2007,0.2009,0.2043,0.205,0.2055,0.2069,0.1986,0,0,0,0,0,0.21,0.2092,0.209,0.2082,0.2085,0.2083,0.2087,0.2086,0.2078,0.2074,0.206,0.2047,0.2041,0.2039,0.203,0.2035,0.2044,0.2052,0.2058,0.2063,0.2072,0.2109,0.2119,0.2009,0.2009,0.2009,0,0,0.21,0.2092,0.2088,0.2084,0.2085,0.2099,0.2085,0.2095,0.2105,0.207,0.2072,0.2062,0.2047,0.2056,0.2058,0.2047,0.21,0.2066,0.2071,0.2077,0.2113,0.2124,0.2133,0.2011,0.2011,0.2011,0,0,0.2106,0.2087,0.2088,0.21,0.2112,0.2112,0.212,0.2121,0.212,0.2124,0.2105,0.2113,0.2096,0.2101,0.2098,0.2132,0.2128,0.2131,0.2172,0.2208,0.2218,0.2226,0.2256,0.2267,0.2137,0.2137,0.2137,0,0.2106,0.2098,0.2096,0.2108,0.2118,0.2121,0.2136,0.214,0.2141,0.2146,0.2132,0.2135,0.2123,0.2145,0.2159,0.2147,0.2162,0.2144,0.2217,0.2225,0.2233,0.2261,0.2272,0.214,0.214,0.2139,0.2139,0,0.2124,0.2118,0.2123,0.2134,0.215,0.2163,0.2175,0.2188,0.2184,0.2189,0.2208,0.2198,0.2205,0.2208,0.219,0.2243,0.2234,0.2217,0.2199,0.2247,0.2274,0.2285,0.2144,0.2143,0.2142,0.2141,0,0,0.2101,0.2129,0.2124,0.2137,0.2161,0.2175,0.2201,0.2223,0.224,0.2249,0.2276,0.228,0.2282,0.228,0.2272,0.2305,0.2372,0.2288,0.2288,0.2318,0.2453,0.2463,0.2475,0.2367,0.2369,0.2371,0.2451,0,0.2109,0.2133,0.2145,0.2171,0.2183,0.2205,0.223,0.2256,0.227,0.2299,0.231,0.2326,0.2307,0.2316,0.2349,0.2359,0.2402,0.2352,0.2402,0.2403,0.2407,0.2489,0.2358,0.242,0.2462,0.2463,0.2465,0,0.2105,0.2123,0.2148,0.2184,0.2192,0.2213,0.2256,0.2281,0.2327,0.2341,0.2374,0.2378,0.2425,0.2401,0.2467,0.2435,0.2457,0.2468,0.2471,0.2471,0.2434,0.2378,0.2438,0.2313,0.2481,0.248,0.2479,0,0.2079,0.2113,0.2132,0.2146,0.2195,0.2213,0.2243,0.229,0.2315,0.2372,0.2398,0.2445,0.2472,0.2509,0.2536,0.2506,0.2613,0.257,0.2605,0.2605,0.25,0.2488,0.2444,0.2639,0.2639,0.2639,0.2638,0,0.2063,0.2078,0.2121,0.2131,0.2163,0.2203,0.224,0.2279,0.2336,0.2376,0.2416,0.2461,0.2502,0.2558,0.2574,0.2635,0.2648,0.2639,0.264,0.2514,0.2503,0.2393,0.2359,0.2642,0.2641,0.264,0.264,0,0.2031,0.2057,0.2082,0.213,0.2147,0.2171,0.2235,0.2266,0.2323,0.2382,0.2403,0.2487,0.2567,0.2613,0.2685,0.2687,0.2658,0.2756,0.2609,0.2592,0.2496,0.2471,0.2434,0.2367,0.2803,0.2804,0.2805,0,0.2021,0.2026,0.2071,0.2087,0.2109,0.2152,0.2183,0.2249,0.2286,0.2396,0.2425,0.2528,0.2594,0.2713,0.2748,0.2806,0.2694,0.271,0.2637,0.2502,0.2474,0.2394,0.2333,0.2511,0.2509,0.2508,0.2507,0,0.2003,0.2013,0.2035,0.2066,0.2094,0.2129,0.218,0.2205,0.2291,0.2343,0.2437,0.2502,0.2636,0.2652,0.2738,0.2743,0.2558,0.2687,0.2571,0.2283,0.2167,0.2097,0.2445,0.2494,0.2496,0.2496,0.2497,0.2498,0.1986,0.1996,0.2018,0.2043,0.2077,0.2103,0.2101,0.2163,0.2213,0.2265,0.2383,0.2433,0.2484,0.2597,0.2598,0.2478,0.253,0.2367,0.2363,0.2305,0.2196,0.2538,0.2576,0.2577,0.2579,0.258,0.2581,0,0.1956,0.1975,0.2,0.2023,0.2028,0.2059,0.2092,0.2068,0.2094,0.2184,0.2241,0.2256,0.2245,0.2256,0.2219,0.2143,0.2032,0.2055,0.1861,0.1829,0.2137,0.2075,0.1975,0.1975,0.1975,0.1975,0.1975,0.1976,0.1945,0.1952,0.1962,0.196,0.1969,0.1934,0.1923,0.191,0.1945,0.194,0.1948,0.1994,0.2021,0.1972,0.1838,0.1787,0.1628,0.159,0.1609,0.1753,0.1778,0.1802,0.1732,0.1561,0.1561,0.1177,0.1174,0.1172]},{"header":{"parameterUnit":"m.s-1","parameterCategory":2,"la1":30.2991,"la2":30.254,"lo1":-89.0895,"lo2":-89.0444,"dy":0.0017,"dx":0.0017,"nx":28,"ny":28,"refTime":"2024-03-15T21:00:00:Z","depth":"0","parameterNumber":3,"parameterNumberName":"V-component_of_CURRENTS"},"data":[0,0,0,0,0,0,0,0,0,0,0,0,0,0,0,0,0,0,0,0,0,0,0,0,0,0,0,0,0,0,0,0,0,0,0,0,0,0,0,0,0,0,0,0,0,0,0,0,0,0,0,0,0,0,0,0,0,0,-0.0644,-0.0645,0,-0.0712,-0.0713,-0.0714,-0.0752,-0.0752,-0.0753,-0.0753,-0.0763,-0.0763,-0.0763,0,0,0,0,0,0,0,0,0,0,0,0,0,-0.0648,-0.0647,-0.0644,-0.0645,-0.0646,-0.0712,-0.0713,-0.0714,-0.0752,-0.0752,-0.0753,-0.0753,-0.0763,-0.0763,-0.0763,0,0,0,0,0,0,0,0,0,0,0,0,0,-0.0673,-0.0647,-0.0644,-0.0674,-0.0677,-0.0712,-0.0713,-0.0714,-0.0752,-0.0752,-0.0753,-0.0753,-0.0763,-0.0763,-0.0763,-0.0756,0,0,-0.0763,-0.0763,0,0,0,0,0,0,0,0,-0.0672,-0.0673,-0.0669,-0.0672,-0.0676,-0.0725,-0.0718,-0.0726,-0.0752,-0.0722,-0.0753,-0.0753,-0.0745,-0.0747,-0.0758,-0.0757,-0.0757,-0.0763,-0.0763,-0.0763,-0.0763,0,0,0,0,0,0,0,-0.067,-0.0671,-0.067,-0.067,-0.0674,-0.0719,-0.0722,-0.0721,-0.0729,-0.0725,-0.0728,-0.0738,-0.0747,-0.0758,-0.0758,-0.0757,-0.0763,-0.0763,-0.0763,-0.0763,-0.0756,-0.0756,0,0,0,0,0,0,-0.0658,-0.0668,-0.0668,-0.0672,-0.0676,-0.0718,-0.0721,-0.0708,-0.073,-0.0735,-0.0737,-0.0739,-0.0758,-0.0758,-0.0759,-0.0754,-0.0763,-0.0763,-0.0763,-0.0756,-0.0756,-0.0756,0,0,0,0,0,0,-0.0657,-0.0656,-0.0665,-0.0675,-0.0679,-0.0717,-0.0702,-0.0709,-0.0723,-0.0741,-0.0744,-0.0744,-0.0758,-0.0759,-0.0747,-0.0755,-0.0763,-0.0763,-0.0757,-0.0756,-0.0756,-0.0744,0,0,0,0,0,0,-0.0656,-0.0655,-0.0644,-0.0672,-0.0678,-0.0686,-0.0702,-0.071,-0.0729,-0.0732,-0.0747,-0.0749,-0.0758,-0.0746,-0.0747,-0.0755,-0.0763,-0.0757,-0.0756,-0.0756,-0.0745,-0.0743,-0.0742,0,0,0,0,0,-0.0656,-0.0645,-0.0642,-0.0643,-0.066,-0.0686,-0.0693,-0.0722,-0.0728,-0.0735,-0.0734,-0.0749,-0.0745,-0.0746,-0.0746,-0.0755,-0.0757,-0.0757,-0.0756,-0.0745,-0.0743,-0.0742,0,0,0,0,0,0,-0.0648,-0.0649,-0.0647,-0.0637,-0.0657,-0.0693,-0.0704,-0.0719,-0.0726,-0.0725,-0.0736,-0.0737,-0.0731,-0.074,-0.0741,-0.0752,-0.0757,-0.0757,-0.0749,-0.0747,-0.0746,-0.0734,-0.0763,0,0,0,0,0,-0.0637,-0.0631,-0.064,-0.0639,-0.064,-0.0668,-0.0683,-0.07,-0.0712,-0.0717,-0.0724,-0.0729,-0.073,-0.0735,-0.0734,-0.0736,-0.0739,-0.0744,-0.0743,-0.0742,-0.0732,-0.0753,-0.0753,-0.0754,-0.0754,-0.0754,0,0,-0.0643,-0.0639,-0.0641,-0.0638,-0.0653,-0.0654,-0.0677,-0.0697,-0.0697,-0.0714,-0.0709,-0.0718,-0.0726,-0.0727,-0.0728,-0.0736,-0.0739,-0.0741,-0.074,-0.0731,-0.0752,-0.0752,-0.0752,-0.0754,-0.0754,-0.0754,0,0,-0.0648,-0.0635,-0.0625,-0.0632,-0.0643,-0.0655,-0.0656,-0.0678,-0.0682,-0.0676,-0.069,-0.0702,-0.0699,-0.0717,-0.0723,-0.0713,-0.0726,-0.0718,-0.071,-0.0731,-0.0731,-0.0731,-0.0719,-0.0718,-0.0726,-0.0726,-0.0726,0,-0.0649,-0.0628,-0.0634,-0.0622,-0.0627,-0.0648,-0.0642,-0.0648,-0.0666,-0.0664,-0.0668,-0.0681,-0.0695,-0.0705,-0.0706,-0.0712,-0.0711,-0.0716,-0.0729,-0.073,-0.073,-0.0718,-0.0717,-0.0725,-0.0725,-0.0725,-0.0725,0,-0.0645,-0.0624,-0.0622,-0.0603,-0.0613,-0.0615,-0.0618,-0.062,-0.0623,-0.0631,-0.0632,-0.0653,-0.0665,-0.0681,-0.0687,-0.0705,-0.0697,-0.072,-0.0734,-0.0729,-0.0716,-0.0716,-0.0724,-0.0724,-0.0725,-0.0725,0,0,-0.0632,-0.0618,-0.0608,-0.0596,-0.0597,-0.0603,-0.0596,-0.0593,-0.0581,-0.0599,-0.059,-0.0614,-0.0634,-0.0641,-0.0668,-0.0693,-0.0698,-0.0706,-0.0707,-0.0693,-0.0716,-0.0683,-0.068,-0.0726,-0.0727,-0.0727,-0.07,0,-0.0614,-0.0586,-0.0586,-0.0566,-0.0552,-0.0565,-0.0556,-0.0563,-0.0559,-0.0553,-0.0583,-0.058,-0.0615,-0.0623,-0.0654,-0.0683,-0.0699,-0.0701,-0.0722,-0.0722,-0.0694,-0.0679,-0.0608,-0.0576,-0.07,-0.07,-0.07,0,-0.059,-0.0571,-0.0546,-0.0534,-0.0527,-0.0522,-0.0511,-0.0506,-0.0506,-0.0506,-0.0522,-0.0535,-0.0565,-0.0597,-0.0645,-0.0643,-0.0672,-0.0699,-0.0699,-0.0671,-0.0689,-0.0604,-0.057,-0.066,-0.0699,-0.0699,-0.0699,0,-0.0564,-0.0538,-0.0515,-0.0511,-0.0502,-0.0493,-0.0491,-0.0491,-0.0472,-0.0474,-0.0458,-0.05,-0.0504,-0.056,-0.0608,-0.0626,-0.065,-0.0687,-0.0681,-0.0678,-0.0621,-0.0613,-0.0677,-0.0718,-0.0718,-0.0718,-0.0718,0,-0.0532,-0.0515,-0.0498,-0.0478,-0.0451,-0.0466,-0.0433,-0.0436,-0.0427,-0.0386,-0.043,-0.04,-0.0495,-0.0516,-0.0581,-0.0613,-0.063,-0.0662,-0.0671,-0.0612,-0.0604,-0.0683,-0.0742,-0.0717,-0.0717,-0.0717,-0.0717,0,-0.0512,-0.0502,-0.0465,-0.0437,-0.0433,-0.0412,-0.039,-0.0363,-0.0363,-0.0311,-0.0307,-0.0321,-0.0335,-0.0417,-0.0492,-0.0556,-0.0637,-0.062,-0.0525,-0.0523,-0.0606,-0.0665,-0.0715,-0.0752,-0.0604,-0.0603,-0.0602,0,-0.0504,-0.0477,-0.0421,-0.0397,-0.0381,-0.0355,-0.0333,-0.033,-0.029,-0.0244,-0.0205,-0.0206,-0.0173,-0.0267,-0.0368,-0.0456,-0.0574,-0.048,-0.0515,-0.0587,-0.0661,-0.0714,-0.0746,-0.0426,-0.0424,-0.0422,-0.042,0,-0.047,-0.044,-0.0398,-0.0342,-0.0306,-0.027,-0.0231,-0.0185,-0.0156,-0.0087,0.0006,0.0034,-0.0034,-0.007,-0.0216,-0.0299,-0.0521,-0.0446,-0.0555,-0.0547,-0.0574,-0.062,-0.0454,-0.0405,-0.0406,-0.0407,-0.0408,-0.0409,-0.0429,-0.0394,-0.0328,-0.0277,-0.0236,-0.0175,-0.0112,-0.0044,0.0058,0.0198,0.0196,0.031,0.0182,0.0019,-0.0122,-0.0341,-0.0394,-0.0418,-0.0486,-0.0535,-0.0571,-0.0354,-0.0302,-0.0303,-0.0304,-0.0305,-0.0306,0,-0.0374,-0.0336,-0.028,-0.0198,-0.0128,-0.0129,-0.0034,0.0057,0.0227,0.0371,0.0488,0.0551,0.0385,0.0158,-0.0142,-0.0341,-0.0442,-0.0476,-0.0547,-0.0583,-0.0404,-0.0398,-0.0324,-0.0324,-0.0324,-0.0324,-0.0324,-0.0324,-0.0339,-0.0275,-0.0246,-0.0115,-0.0054,0.0055,0.0129,0.0268,0.0399,0.0648,0.0791,0.0852,0.0677,0.0074,-0.0362,-0.0477,-0.0647,-0.0651,-0.0787,-0.0678,-0.0679,-0.0679,-0.0689,-0.0678,-0.0678,-0.0914,-0.0916,-0.0918]}],[{"header":{"parameterUnit":"m.s-1","parameterCategory":2,"la1":30.2991,"la2":30.254,"lo1":-89.0895,"lo2":-89.0444,"dy":0.0017,"dx":0.0017,"nx":28,"ny":28,"refTime":"2024-03-15T21:00:00:Z","depth":"2","parameterNumber":2,"parameterNumberName":"U-component_of_CURRENTS"},"data":[0,0,0,0,0,0,0,0,0,0,0,0,0,0,0,0,0,0,0,0,0,0,0,0,0,0,0,0,0,0,0,0,0,0,0,0,0,0,0,0,0,0,0,0,0,0,0,0,0,0,0,0,0,0,0,0,0,0,0.1546,0.1546,0,0.1552,0.1552,0.1552,0.1547,0.1547,0.1546,0.1546,0.1561,0.1562,0.1563,0,0,0,0,0,0,0,0,0,0,0,0,0,0.1548,0.1548,0.1546,0.1546,0.1546,0.1552,0.1552,0.1552,0.1547,0.1547,0.1546,0.1546,0.1561,0.1562,0.1563,0,0,0,0,0,0,0,0,0,0,0,0,0,0.1552,0.1548,0.1546,0.1542,0.1542,0.1552,0.1552,0.1552,0.1547,0.1547,0.1546,0.1546,0.1561,0.1562,0.1563,0.1581,0,0,0.1567,0.1567,0,0,0,0,0,0,0,0,0.1551,0.1552,0.1543,0.1543,0.1542,0.1547,0.1559,0.1562,0.1547,0.1547,0.1546,0.1545,0.1557,0.1558,0.1563,0.1582,0.1583,0.1567,0.1567,0.1568,0.1568,0,0,0,0,0,0,0,0.1551,0.1552,0.155,0.1543,0.1543,0.1547,0.1547,0.1559,0.1556,0.1547,0.1546,0.1544,0.1557,0.1562,0.1563,0.1583,0.1567,0.1568,0.1568,0.1569,0.1638,0.1639,0,0,0,0,0,0,0.1547,0.1551,0.155,0.155,0.1544,0.1547,0.1547,0.1547,0.1556,0.1556,0.1545,0.1544,0.156,0.1562,0.1564,0.1611,0.1568,0.1569,0.157,0.1637,0.1638,0.1639,0,0,0,0,0,0,0.1547,0.1547,0.1549,0.1549,0.155,0.1547,0.1548,0.1548,0.1577,0.1554,0.1555,0.1577,0.156,0.1562,0.1584,0.161,0.1569,0.157,0.1635,0.1637,0.1639,0.169,0,0,0,0,0,0,0.1547,0.1547,0.1549,0.1549,0.1549,0.1569,0.1548,0.1548,0.1574,0.1574,0.1581,0.158,0.1559,0.1582,0.1585,0.1611,0.1571,0.1634,0.1636,0.1638,0.1687,0.1693,0.1698,0,0,0,0,0,0.1547,0.1543,0.1549,0.1549,0.1552,0.157,0.1571,0.1568,0.1577,0.1593,0.1593,0.1581,0.1598,0.1584,0.1587,0.1614,0.1633,0.1636,0.1638,0.1684,0.1692,0.1698,0,0,0,0,0,0,0.1547,0.1543,0.1549,0.1545,0.1566,0.1568,0.1581,0.1591,0.1607,0.1607,0.1598,0.1597,0.1622,0.1617,0.1603,0.164,0.1614,0.1617,0.1648,0.1655,0.1661,0.1646,0.1572,0,0,0,0,0,0.1549,0.1546,0.1557,0.156,0.1575,0.1592,0.1602,0.1603,0.1613,0.1621,0.1619,0.1622,0.1634,0.1644,0.1641,0.1672,0.1676,0.1691,0.1697,0.1702,0.1693,0.1724,0.1732,0.1648,0.1648,0.1648,0,0,0.1547,0.1548,0.1545,0.1561,0.158,0.16,0.1598,0.162,0.1637,0.162,0.1643,0.1643,0.1645,0.1664,0.1677,0.1667,0.1734,0.1706,0.171,0.1697,0.1727,0.1736,0.1743,0.165,0.1649,0.1649,0,0,0.1547,0.1556,0.156,0.1589,0.1616,0.1616,0.1634,0.165,0.1663,0.1687,0.1676,0.1694,0.171,0.171,0.1718,0.1763,0.1761,0.1769,0.1793,0.1825,0.1832,0.1838,0.1878,0.1887,0.1777,0.1777,0.1777,0,0.1548,0.1561,0.1568,0.16,0.1612,0.1633,0.165,0.1676,0.1691,0.1699,0.1698,0.1728,0.1731,0.1766,0.177,0.1777,0.1793,0.1767,0.1832,0.1838,0.1843,0.1883,0.1892,0.178,0.1779,0.1779,0.1779,0,0.1562,0.1588,0.1605,0.1637,0.1645,0.1675,0.1695,0.1716,0.1729,0.1738,0.1776,0.1784,0.1808,0.1813,0.1803,0.1847,0.1847,0.1834,0.1813,0.1855,0.1894,0.1903,0.1784,0.1783,0.1782,0.1781,0,0,0.1534,0.1597,0.1611,0.1641,0.167,0.1683,0.1708,0.173,0.1772,0.1785,0.1835,0.1845,0.1861,0.187,0.1879,0.1891,0.1951,0.1876,0.1877,0.1914,0.203,0.1961,0.1964,0.1948,0.195,0.1951,0.2051,0,0.1555,0.1599,0.1618,0.1669,0.169,0.1717,0.1739,0.1759,0.179,0.1848,0.187,0.1915,0.1888,0.1917,0.1933,0.1935,0.1972,0.1925,0.1983,0.1985,0.1917,0.197,0.181,0.1878,0.2059,0.2061,0.2062,0,0.1565,0.1591,0.1625,0.1683,0.1699,0.1724,0.1763,0.1798,0.1866,0.1893,0.1942,0.1976,0.2014,0.1995,0.2035,0.2006,0.2028,0.2024,0.2029,0.1944,0.1931,0.1861,0.1887,0.2076,0.2075,0.2074,0.2073,0,0.1522,0.1603,0.1621,0.165,0.1707,0.1728,0.1754,0.18,0.1836,0.1936,0.1971,0.2035,0.2084,0.2097,0.2094,0.2079,0.213,0.2121,0.2089,0.2086,0.1948,0.1929,0.2172,0.2172,0.2171,0.2171,0.2171,0,0.1525,0.1556,0.162,0.1646,0.1683,0.1719,0.1782,0.1817,0.1887,0.1936,0.2006,0.2056,0.2107,0.2144,0.2134,0.2128,0.2178,0.2098,0.2104,0.1963,0.1945,0.2103,0.2093,0.2175,0.2174,0.2173,0.2173,0,0.1483,0.1528,0.1567,0.1639,0.1666,0.169,0.1778,0.1824,0.1888,0.1961,0.1987,0.2083,0.2125,0.2159,0.2202,0.218,0.2175,0.217,0.2002,0.1985,0.2111,0.2104,0.2164,0.2162,0.2161,0.216,0.2159,0,0.1458,0.1481,0.1555,0.1578,0.1621,0.1686,0.1719,0.1799,0.184,0.1957,0.1972,0.2068,0.2101,0.214,0.2129,0.213,0.2166,0.1988,0.192,0.211,0.211,0.2105,0.2099,0.1781,0.1777,0.1774,0.1771,0,0.143,0.1463,0.1498,0.1541,0.1585,0.1639,0.1699,0.1718,0.1815,0.1859,0.1913,0.1953,0.2032,0.196,0.1977,0.1952,0.1965,0.1921,0.2174,0.1792,0.1751,0.1751,0.1757,0.1742,0.1745,0.1747,0.1748,0.175,0.141,0.1417,0.1469,0.1501,0.1543,0.1557,0.1573,0.1627,0.1657,0.1678,0.1782,0.177,0.1819,0.1747,0.17,0.1691,0.1831,0.1749,0.1758,0.1771,0.1692,0.1649,0.1608,0.161,0.1612,0.1614,0.1615,0,0.1379,0.1391,0.1425,0.1447,0.1451,0.1511,0.1529,0.1506,0.1493,0.1531,0.1548,0.1427,0.1385,0.1433,0.138,0.1396,0.1381,0.1338,0.1298,0.1329,0.1356,0.1254,0.1056,0.1054,0.1052,0.105,0,0,0.1367,0.1356,0.1359,0.1339,0.137,0.134,0.1329,0.1288,0.1278,0.1217,0.1199,0.1276,0.1365,0.1163,0.1165,0.1096,0.1196,0.1056,0.1509,0.1492,0.1516,0.1604,0.1484,0,0,0,0,0]},{"header":{"parameterUnit":"m.s-1","parameterCategory":2,"la1":30.2991,"la2":30.254,"lo1":-89.0895,"lo2":-89.0444,"dy":0.0017,"dx":0.0017,"nx":28,"ny":28,"refTime":"2024-03-15T21:00:00:Z","depth":"2","parameterNumber":3,"parameterNumberName":"V-component_of_CURRENTS"},"data":[0,0,0,0,0,0,0,0,0,0,0,0,0,0,0,0,0,0,0,0,0,0,0,0,0,0,0,0,0,0,0,0,0,0,0,0,0,0,0,0,0,0,0,0,0,0,0,0,0,0,0,0,0,0,0,0,0,0,0.0116,0.0116,0,0.009,0.009,0.0089,0.0068,0.0069,0.0069,0.007,0.0009,0.0007,0.0005,0,0,0,0,0,0,0,0,0,0,0,0,0,0.0115,0.0115,0.0116,0.0116,0.0116,0.009,0.0089,0.0089,0.0068,0.0069,0.0069,0.007,0.0009,0.0007,0.0005,0,0,0,0,0,0,0,0,0,0,0,0,0,0.0099,0.0115,0.0116,0.0108,0.0107,0.0091,0.0089,0.0088,0.0068,0.0069,0.0069,0.007,0.001,0.0007,0.0004,-0.0025,0,0,-0.0005,-0.0006,0,0,0,0,0,0,0,0,0.01,0.0098,0.0109,0.0108,0.0108,0.0089,0.0067,0.0051,0.0068,0.0076,0.007,0.007,0.0036,0.0031,0.0016,-0.0028,-0.003,-0.0005,-0.0007,-0.0008,-0.0009,0,0,0,0,0,0,0,0.0101,0.0099,0.0099,0.0109,0.0108,0.0095,0.0093,0.0063,0.0048,0.0076,0.0076,0.0083,0.0034,0.0019,0.0015,-0.0031,-0.0005,-0.0008,-0.0009,-0.0011,-0.0066,-0.0066,0,0,0,0,0,0,0.0118,0.0101,0.01,0.0099,0.0112,0.0095,0.0092,0.0089,0.0049,0.0045,0.0082,0.0082,0.0024,0.0018,0.0013,0.0001,-0.0008,-0.0011,-0.0013,-0.0067,-0.0066,-0.0066,0,0,0,0,0,0,0.0118,0.0118,0.0101,0.0105,0.0103,0.0095,0.0091,0.0088,0.0068,0.0055,0.005,0.0065,0.0024,0.0017,-0.0013,-0.0003,-0.0012,-0.0015,-0.0067,-0.0066,-0.0066,-0.0039,0,0,0,0,0,0,0.0118,0.0117,0.0114,0.0106,0.0103,0.0102,0.0091,0.0088,0.0075,0.0073,0.0039,0.0034,0.0024,-0.0008,-0.0016,-0.0007,-0.0017,-0.0067,-0.0067,-0.0066,-0.0041,-0.0038,-0.0036,0,0,0,0,0,0.0117,0.012,0.0113,0.0114,0.01,0.0103,0.01,0.0092,0.0073,0.0072,0.0043,0.0035,-0.0009,-0.0011,-0.002,-0.0012,-0.0068,-0.0067,-0.0066,-0.0042,-0.0039,-0.0036,0,0,0,0,0,0,0.0118,0.0118,0.0111,0.0113,0.0112,0.0102,0.0099,0.0085,0.0057,0.0057,0.0024,0.0018,0.0004,-0.0014,-0.0015,-0.0024,-0.0035,-0.0036,-0.0013,-0.001,-0.0008,0.0028,-0.002,0,0,0,0,0,0.0117,0.0116,0.0117,0.0116,0.0115,0.0099,0.0094,0.0098,0.0079,0.0067,0.0038,0.0015,-0.0001,-0.0014,-0.0027,-0.0049,-0.0059,-0.0045,-0.0042,-0.004,-0.0016,-0.0031,-0.0028,-0.0064,-0.0064,-0.0064,0,0,0.0126,0.0118,0.0123,0.0116,0.0107,0.0119,0.0095,0.0103,0.0103,0.0064,0.0039,0.002,-0.0004,-0.0014,-0.0021,-0.0029,-0.004,-0.0039,-0.0037,-0.0014,-0.003,-0.0026,-0.0023,-0.0063,-0.0063,-0.0064,0,0,0.0144,0.0125,0.0136,0.0135,0.0138,0.0133,0.0133,0.0123,0.0105,0.0083,0.0065,0.0054,0.0004,0.0008,-0.0003,0.0,-0.0024,-0.001,0.0024,0.0009,0.0012,0.0015,-0.0013,-0.0013,-0.0013,-0.0012,-0.0012,0,0.0151,0.0158,0.0141,0.0149,0.0161,0.0138,0.0165,0.0138,0.0119,0.0113,0.0084,0.004,0.0023,0.002,0.0034,0.0009,-0.0013,0.0013,0.0012,0.0015,0.0017,-0.0012,-0.0012,-0.0011,-0.0011,-0.0011,-0.0012,0,0.019,0.0187,0.019,0.0193,0.0205,0.022,0.0208,0.0192,0.016,0.0149,0.0126,0.0089,0.0065,0.0061,0.0047,0.006,0.0034,0.0018,0.0007,0.0023,-0.0009,-0.001,-0.0009,-0.001,-0.001,-0.001,0,0,0.0215,0.0219,0.0216,0.0228,0.0233,0.0252,0.0244,0.0245,0.0236,0.0198,0.0185,0.0161,0.0136,0.0124,0.0096,0.0097,0.0091,0.0071,0.0069,0.0046,0.0042,0.0047,0.0046,0.0066,0.0066,0.0067,0.0006,0,0.0243,0.0276,0.0273,0.0308,0.0328,0.0313,0.0307,0.031,0.0277,0.0252,0.0213,0.0197,0.0153,0.0144,0.0128,0.0117,0.0094,0.0109,0.0029,0.0027,0.0032,0.0047,0.0055,0.0005,0.0005,0.0005,0.0005,0,0.0278,0.0295,0.0343,0.0363,0.0372,0.0387,0.0393,0.0397,0.0362,0.0326,0.0291,0.0252,0.0242,0.0195,0.0148,0.0154,0.0102,0.0083,0.0079,0.0082,0.0032,-0.0008,0.0003,0.0004,0.0004,0.0004,0.0004,0,0.0316,0.0338,0.038,0.039,0.0412,0.0421,0.0437,0.0426,0.0428,0.0388,0.0381,0.0321,0.0297,0.0237,0.0178,0.0159,0.0131,0.0087,0.0031,0.0029,0.0025,0.0023,0.0045,0.0045,0.0046,0.0046,0.0046,0,0.0344,0.0374,0.0392,0.0415,0.0459,0.0473,0.0506,0.0489,0.0478,0.0504,0.0428,0.0423,0.0311,0.027,0.0199,0.0123,0.0126,0.0054,0.0025,0.0032,0.0031,0.0028,0.0026,0.0043,0.0044,0.0044,0.0045,0,0.0378,0.039,0.044,0.0468,0.0477,0.0522,0.056,0.0578,0.0558,0.0583,0.0579,0.0506,0.0452,0.034,0.0252,0.0158,0.0094,0.0056,0.0071,0.0046,-0.0014,-0.0013,-0.0022,-0.0022,-0.0023,-0.0023,-0.0023,0,0.041,0.0427,0.048,0.0519,0.0529,0.0582,0.0613,0.0613,0.0646,0.0649,0.0675,0.0613,0.0578,0.0435,0.0276,0.0129,0.0104,0.0033,0.0008,0.0013,-0.0015,-0.0015,-0.0014,-0.0007,-0.0007,-0.0007,-0.0007,0,0.046,0.0464,0.0507,0.057,0.0616,0.0674,0.0726,0.0755,0.0772,0.0788,0.0819,0.08,0.0639,0.0488,0.0272,0.0178,0.006,0.0029,0.0037,0.0021,0.0026,-0.0002,-0.0001,-0.0007,-0.0007,-0.0007,-0.0007,-0.0007,0.05,0.053,0.0568,0.063,0.0693,0.0759,0.0807,0.0861,0.0919,0.0945,0.0931,0.0888,0.0708,0.0426,0.0258,0.0059,0.0064,-0.0014,-0.0014,-0.0014,0.0011,0.0017,-0.0014,-0.0014,-0.0014,-0.0014,-0.0014,0,0.0546,0.0566,0.0624,0.0704,0.0772,0.0783,0.0875,0.0919,0.0997,0.1005,0.1016,0.0837,0.0664,0.0454,0.0158,-0.0002,-0.0022,-0.0053,-0.0051,-0.0049,-0.0048,-0.0026,-0.006,-0.0061,-0.0062,-0.0062,0,0,0.0568,0.0631,0.0647,0.0754,0.08,0.0879,0.0929,0.099,0.1023,0.1033,0.099,0.0938,0.07,0.0478,0.0261,0.0089,0.0056,0.0061,0.0117,0.0147,0.0149,-0.0004,0.0036,0,0,0,0,0]}],[{"header":{"parameterUnit":"m.s-1","parameterCategory":2,"la1":30.2991,"la2":30.254,"lo1":-89.0895,"lo2":-89.0444,"dy":0.0017,"dx":0.0017,"nx":28,"ny":28,"refTime":"2024-03-15T21:00:00:Z","depth":"4","parameterNumber":2,"parameterNumberName":"U-component_of_CURRENTS"},"data":[0,0,0,0,0,0,0,0,0,0,0,0,0,0,0,0,0,0,0,0,0,0,0,0,0,0,0,0,0,0,0,0,0,0,0,0,0,0,0,0,0,0,0,0,0,0,0,0,0,0,0,0,0,0,0,0,0,0,0.0732,0.0732,0,0.0761,0.0762,0.0762,0.0793,0.0793,0.0793,0.0794,0.0851,0.0852,0.0854,0,0,0,0,0,0,0,0,0,0,0,0,0,0.0678,0.0679,0.0732,0.0732,0.0733,0.0761,0.0762,0.0762,0.0792,0.0793,0.0794,0.0794,0.0851,0.0852,0.0854,0,0,0,0,0,0,0,0,0,0,0,0,0,0.0704,0.0679,0.0732,0.0751,0.0753,0.0761,0.0762,0.0762,0.0792,0.0793,0.0794,0.0794,0.0851,0.0852,0.0854,0.0852,0,0,0.0859,0.086,0,0,0,0,0,0,0,0,0.0702,0.0706,0.0748,0.075,0.0752,0.0774,0.0764,0.0794,0.0792,0.0778,0.0794,0.0795,0.0828,0.0831,0.0835,0.0854,0.0857,0.0859,0.086,0.0861,0.0862,0,0,0,0,0,0,0,0.0701,0.0705,0.0744,0.0748,0.0751,0.075,0.0755,0.0769,0.0799,0.0779,0.0781,0.0784,0.0829,0.0833,0.0837,0.0858,0.0859,0.0861,0.0862,0.0862,0.0944,0.0945,0,0,0,0,0,0,0.0698,0.0703,0.0743,0.0744,0.0728,0.0751,0.0756,0.0766,0.0798,0.0804,0.0784,0.0786,0.083,0.0835,0.0839,0.0895,0.0861,0.0863,0.0864,0.0943,0.0944,0.0945,0,0,0,0,0,0,0.0697,0.0701,0.0741,0.0724,0.0729,0.0751,0.0763,0.0767,0.0788,0.0802,0.0808,0.0803,0.0831,0.0836,0.0876,0.0896,0.0863,0.0865,0.0942,0.0943,0.0945,0.0972,0,0,0,0,0,0,0.0695,0.0701,0.0717,0.0724,0.073,0.0751,0.0762,0.0767,0.0788,0.0791,0.082,0.0825,0.0832,0.0874,0.0878,0.0898,0.0866,0.094,0.0942,0.0944,0.097,0.0975,0.0979,0,0,0,0,0,0.0693,0.0702,0.0717,0.0723,0.0748,0.0751,0.0754,0.0771,0.0788,0.0794,0.0828,0.0825,0.089,0.0876,0.0881,0.0901,0.0939,0.0942,0.0944,0.0968,0.0974,0.0979,0,0,0,0,0,0,0.0686,0.0706,0.0723,0.074,0.075,0.0756,0.0768,0.078,0.081,0.0822,0.084,0.0848,0.089,0.0893,0.0877,0.0932,0.0914,0.0917,0.093,0.0936,0.094,0.0932,0.0868,0,0,0,0,0,0.0692,0.071,0.0722,0.0739,0.0746,0.0762,0.0771,0.0781,0.0802,0.0816,0.0843,0.0873,0.09,0.0916,0.0938,0.0966,0.0971,0.0983,0.0987,0.0991,0.0989,0.1024,0.1032,0.0954,0.0954,0.0954,0,0,0.0693,0.071,0.0719,0.074,0.0754,0.0764,0.077,0.0783,0.0804,0.0818,0.0868,0.0891,0.0912,0.0949,0.0967,0.0956,0.1016,0.0994,0.0997,0.0993,0.1028,0.1035,0.1042,0.0956,0.0955,0.0955,0,0,0.0694,0.0721,0.0733,0.0743,0.0764,0.0774,0.0781,0.0802,0.0825,0.0867,0.0887,0.0924,0.0967,0.0984,0.0998,0.1039,0.104,0.105,0.1064,0.1099,0.1106,0.1112,0.1125,0.1131,0.105,0.105,0.105,0,0.0699,0.0718,0.0735,0.0747,0.0762,0.0781,0.0793,0.0814,0.085,0.0876,0.0889,0.0965,0.0983,0.1023,0.104,0.1048,0.1063,0.1041,0.1105,0.111,0.1116,0.1128,0.1135,0.1051,0.1051,0.1051,0.1051,0,0.07,0.0725,0.0731,0.0762,0.0778,0.0789,0.0817,0.0848,0.0886,0.091,0.097,0.1,0.1043,0.1055,0.1063,0.1109,0.1106,0.1107,0.1088,0.1125,0.1136,0.1142,0.1054,0.1053,0.1053,0.1052,0,0,0.0692,0.0726,0.0734,0.0752,0.0788,0.0797,0.0842,0.0881,0.0916,0.0962,0.1011,0.1059,0.1078,0.1094,0.1109,0.1136,0.1186,0.114,0.1141,0.1148,0.1256,0.1181,0.118,0.1206,0.1207,0.1208,0.1247,0,0.0695,0.0718,0.074,0.0771,0.0785,0.0823,0.0862,0.0903,0.0949,0.1002,0.1039,0.1092,0.1091,0.1122,0.1148,0.1186,0.1207,0.1175,0.1224,0.1225,0.1149,0.1187,0.1213,0.1252,0.1253,0.1254,0.1255,0,0.069,0.071,0.0737,0.0784,0.0795,0.0822,0.0891,0.0926,0.0996,0.1037,0.1089,0.1121,0.1175,0.1169,0.1237,0.1223,0.1239,0.1256,0.1258,0.1181,0.1162,0.1209,0.1267,0.1266,0.1265,0.1265,0.1264,0,0.0671,0.0711,0.0736,0.075,0.0801,0.0836,0.0875,0.0943,0.0986,0.1066,0.111,0.1167,0.1215,0.125,0.1288,0.1276,0.1354,0.1341,0.128,0.1274,0.1317,0.1311,0.1378,0.1378,0.1378,0.1378,0.1378,0,0.0659,0.0681,0.0732,0.0744,0.0787,0.083,0.0886,0.0939,0.1016,0.1061,0.1128,0.1171,0.1243,0.1292,0.1308,0.1316,0.1373,0.1284,0.1283,0.1328,0.1322,0.1322,0.1315,0.138,0.1379,0.1379,0.1379,0,0.063,0.0662,0.0692,0.0752,0.0777,0.081,0.0894,0.0928,0.1014,0.1078,0.1112,0.1202,0.1262,0.1312,0.1374,0.134,0.1358,0.1342,0.1384,0.1384,0.1244,0.1238,0.1271,0.1269,0.1267,0.1266,0.1264,0,0.0609,0.0623,0.0691,0.0712,0.0744,0.0799,0.0834,0.0923,0.0957,0.1081,0.1101,0.1197,0.1242,0.1268,0.1323,0.1348,0.1331,0.1324,0.1277,0.124,0.1236,0.1233,0.123,0.1261,0.1261,0.126,0.126,0,0.0574,0.0608,0.0638,0.0681,0.0722,0.0753,0.0811,0.0836,0.093,0.1017,0.1071,0.1114,0.1174,0.1216,0.125,0.1261,0.1323,0.1304,0.1307,0.1262,0.1228,0.1225,0.1224,0.1253,0.1254,0.1255,0.1255,0,0.0553,0.0565,0.0609,0.0644,0.0683,0.0692,0.0731,0.0772,0.0824,0.0957,0.097,0.1072,0.1155,0.1172,0.1203,0.1214,0.1189,0.1143,0.1154,0.1162,0.111,0.1049,0.1021,0,0,0,0,0,0.0527,0.0538,0.0564,0.0593,0.0625,0.065,0.0705,0.0742,0.0836,0.0847,0.0909,0.096,0.1018,0.1071,0.106,0.1151,0.119,0.1133,0.1141,0.1216,0.1224,0.1174,0,0,0,0,0,0,0.0512,0.0538,0.0548,0.054,0.055,0.0574,0.0608,0.067,0.0679,0.0783,0.0818,0.0901,0.0969,0.1018,0.1043,0.1059,0.1043,0.1198,0.1196,0.1212,0.1219,0.1225,0.1176,0,0,0,0,0]},{"header":{"parameterUnit":"m.s-1","parameterCategory":2,"la1":30.2991,"la2":30.254,"lo1":-89.0895,"lo2":-89.0444,"dy":0.0017,"dx":0.0017,"nx":28,"ny":28,"refTime":"2024-03-15T21:00:00:Z","depth":"4","parameterNumber":3,"parameterNumberName":"V-component_of_CURRENTS"},"data":[0,0,0,0,0,0,0,0,0,0,0,0,0,0,0,0,0,0,0,0,0,0,0,0,0,0,0,0,0,0,0,0,0,0,0,0,0,0,0,0,0,0,0,0,0,0,0,0,0,0,0,0,0,0,0,0,0,0,0.0244,0.0244,0,0.0239,0.0238,0.0238,0.0236,0.0236,0.0236,0.0237,0.0207,0.0206,0.0205,0,0,0,0,0,0,0,0,0,0,0,0,0,0.025,0.025,0.0244,0.0244,0.0244,0.0239,0.0238,0.0238,0.0236,0.0236,0.0237,0.0237,0.0207,0.0206,0.0205,0,0,0,0,0,0,0,0,0,0,0,0,0,0.0245,0.025,0.0244,0.0243,0.0243,0.0239,0.0238,0.0238,0.0236,0.0236,0.0237,0.0237,0.0207,0.0206,0.0205,0.0191,0,0,0.02,0.02,0,0,0,0,0,0,0,0,0.0246,0.0245,0.0243,0.0243,0.0243,0.024,0.023,0.0222,0.0236,0.0237,0.0237,0.0237,0.0216,0.0214,0.0211,0.019,0.0189,0.02,0.0199,0.0199,0.0198,0,0,0,0,0,0,0,0.0246,0.0245,0.024,0.0243,0.0243,0.0243,0.0243,0.0228,0.0224,0.0237,0.0237,0.0239,0.0216,0.0212,0.021,0.0188,0.02,0.0199,0.0198,0.0198,0.0173,0.0173,0,0,0,0,0,0,0.0249,0.0245,0.024,0.024,0.0247,0.0243,0.0242,0.0239,0.0225,0.0223,0.0239,0.0239,0.0214,0.0212,0.0209,0.0213,0.0199,0.0197,0.0197,0.0172,0.0173,0.0173,0,0,0,0,0,0,0.0249,0.0249,0.024,0.0244,0.0243,0.0243,0.0239,0.0239,0.0244,0.0227,0.0224,0.0246,0.0215,0.0211,0.0201,0.0211,0.0197,0.0195,0.0172,0.0172,0.0173,0.0208,0,0,0,0,0,0,0.0249,0.0249,0.0247,0.0244,0.0243,0.0248,0.0239,0.0239,0.0245,0.0246,0.0231,0.0228,0.0214,0.0203,0.0199,0.0209,0.0194,0.0172,0.0172,0.0173,0.0207,0.021,0.0212,0,0,0,0,0,0.025,0.0251,0.0247,0.0246,0.0241,0.0248,0.0248,0.0247,0.0246,0.0252,0.0237,0.0229,0.0203,0.0202,0.0197,0.0207,0.0172,0.0172,0.0173,0.0206,0.0209,0.0212,0,0,0,0,0,0,0.0255,0.0251,0.0246,0.0246,0.0251,0.0249,0.0254,0.0253,0.0247,0.0248,0.0228,0.0224,0.0217,0.0206,0.0206,0.0201,0.0187,0.0187,0.0214,0.0217,0.022,0.0228,0.0193,0,0,0,0,0,0.0255,0.0254,0.0253,0.0255,0.0258,0.0256,0.0259,0.0262,0.0257,0.0255,0.0242,0.0228,0.0214,0.0212,0.0196,0.0194,0.0177,0.0198,0.02,0.0203,0.0207,0.0189,0.0191,0.0174,0.0174,0.0174,0,0,0.0263,0.0256,0.026,0.0256,0.0258,0.0269,0.0259,0.0271,0.0278,0.0252,0.0252,0.0234,0.0214,0.0209,0.0206,0.0204,0.0197,0.0203,0.0206,0.0208,0.019,0.0191,0.0193,0.0174,0.0174,0.0174,0,0,0.0279,0.0269,0.0277,0.028,0.0285,0.0284,0.0291,0.0292,0.0291,0.0288,0.027,0.0258,0.0239,0.0228,0.022,0.0228,0.0208,0.0226,0.0252,0.0235,0.0236,0.0237,0.0214,0.0212,0.0233,0.0233,0.0233,0,0.0284,0.0292,0.0282,0.029,0.0299,0.0294,0.0312,0.0309,0.0306,0.0305,0.0294,0.0266,0.0249,0.0244,0.0246,0.0235,0.0219,0.0242,0.0239,0.0239,0.024,0.0215,0.0214,0.0234,0.0234,0.0234,0.0234,0,0.0311,0.0315,0.0322,0.0328,0.0335,0.0351,0.0349,0.0352,0.0346,0.0341,0.0332,0.0303,0.029,0.0282,0.0266,0.0264,0.0249,0.024,0.0232,0.0243,0.0217,0.0214,0.0237,0.0236,0.0236,0.0235,0,0,0.0321,0.0338,0.0339,0.0351,0.0358,0.037,0.0379,0.0387,0.0395,0.0379,0.0384,0.0355,0.0341,0.033,0.0308,0.0294,0.0278,0.0273,0.0271,0.0253,0.0236,0.0216,0.0211,0.0269,0.0269,0.0269,0.0215,0,0.0343,0.0369,0.0371,0.0402,0.0418,0.0417,0.0426,0.0431,0.0424,0.0423,0.0396,0.0389,0.0359,0.0355,0.0335,0.0291,0.0273,0.0293,0.0225,0.0223,0.0207,0.0208,0.0269,0.0213,0.0213,0.0212,0.0212,0,0.0365,0.0379,0.0415,0.0439,0.0447,0.0466,0.0484,0.0494,0.0488,0.0479,0.0466,0.0442,0.0417,0.039,0.0324,0.0339,0.0293,0.0256,0.0253,0.0221,0.0198,0.02,0.0207,0.0207,0.0207,0.0208,0.0208,0,0.0378,0.0407,0.0438,0.0448,0.0475,0.0494,0.0511,0.0516,0.0529,0.052,0.0522,0.0484,0.0468,0.0407,0.033,0.0328,0.0252,0.024,0.0177,0.0175,0.0194,0.0193,0.0195,0.0195,0.0196,0.0196,0.0196,0,0.0393,0.0418,0.045,0.0469,0.0509,0.0522,0.0564,0.0565,0.0578,0.0595,0.0558,0.0553,0.0472,0.0419,0.0344,0.0251,0.0262,0.018,0.0161,0.0209,0.0211,0.0191,0.0191,0.0194,0.0194,0.0195,0.0195,0,0.0401,0.0421,0.0461,0.0501,0.0517,0.0551,0.0605,0.063,0.0634,0.0653,0.0653,0.0607,0.0529,0.0439,0.0336,0.0271,0.0183,0.0148,0.0204,0.0189,0.0112,0.0114,0.0072,0.007,0.0069,0.0069,0.0068,0,0.0412,0.0432,0.0486,0.0514,0.0539,0.0592,0.0626,0.0654,0.068,0.0682,0.0688,0.0627,0.058,0.0419,0.0322,0.0175,0.0154,0.011,0.0111,0.0114,0.01,0.0104,0.0108,0.0066,0.0066,0.0066,0.0066,0,0.0431,0.0449,0.048,0.0537,0.0584,0.0639,0.0691,0.0711,0.0737,0.0741,0.0708,0.0626,0.0535,0.0411,0.0299,0.0195,0.0139,0.01,0.0101,0.0101,0.0107,0.0095,0.01,0.0062,0.0063,0.0063,0.0063,0,0.0446,0.0467,0.0507,0.0556,0.0616,0.0669,0.0698,0.0725,0.075,0.0743,0.073,0.0631,0.058,0.0421,0.0318,0.0211,0.018,0.0148,0.0146,0.0148,0.0184,0.0204,0.0173,0,0,0,0,0,0.0455,0.0477,0.0524,0.0579,0.0639,0.0676,0.0732,0.0755,0.0775,0.075,0.0741,0.0651,0.0491,0.0429,0.0316,0.0295,0.0163,0.016,0.0125,0.0044,0.0048,0.0075,0,0,0,0,0,0,0.0461,0.0502,0.052,0.0591,0.063,0.07,0.0738,0.075,0.074,0.0737,0.0654,0.0617,0.0464,0.0549,0.031,0.028,0.0241,0.0089,0.0086,0.0042,0.0045,0.0049,0.0077,0,0,0,0,0]}]]